20060226,000028,1906520,37.118800,-124.136200,NaN,12.852,32.816,38.520,  NaN,NaN,2.308, NaN, NaN,14.200, NaN,   NaN,11.30,1017.23,80.90,NaN,17.0,NaN,9.4,NaN,162.3,NaN,18.3,NaN,NaN,1.134,NaN,137.0,NaN,NaN,NaN,2,10.6,000026,   NaN,138.0,     NaN,      NaN,NaN,13.3,NaN, NaN,0.212,NaN,NaN, NaN, NaN
20060226,000058,1906550,37.117800,-124.134800,NaN,12.852,32.816,38.530,  NaN,NaN,2.319, NaN, NaN,14.200, NaN,   NaN,11.30,1017.16,81.50,NaN,15.0,NaN,9.5,NaN,160.1,NaN,18.5,NaN,NaN,1.137,NaN,136.0,NaN,NaN,NaN,2,10.6,000056,   NaN,138.1,     NaN,      NaN,NaN,13.3,NaN, NaN,0.264,NaN,NaN, NaN, NaN
20060226,000128,1906580,37.116700,-124.133700,NaN,12.862,32.816,38.520,  NaN,NaN,2.354, NaN, NaN,14.200, NaN,   NaN,11.30,1017.20,81.40,NaN,14.0,NaN,10.6,NaN,160.1,NaN,20.5,NaN,NaN,1.146,NaN,138.0,NaN,NaN,NaN,2,10.8,000126,   NaN,140.2,     NaN,      NaN,NaN,13.5,NaN, NaN,0.221,NaN,NaN, NaN, NaN
20060226,000158,1906610,37.115500,-124.132300,NaN,12.862,32.816,38.530,  NaN,NaN,2.373, NaN, NaN,14.200, NaN,   NaN,11.40,1017.13,81.90,NaN,16.0,NaN,11.1,NaN,159.3,NaN,21.6,NaN,NaN,1.151,NaN,137.0,NaN,NaN,NaN,2,10.8,000156,   NaN,137.0,     NaN,      NaN,NaN,13.3,NaN, NaN,0.216,NaN,NaN, NaN, NaN
20060226,000228,1906640,37.114500,-124.131200,NaN,12.862,32.816,38.530,  NaN,NaN,2.400, NaN, NaN,14.200, NaN,   NaN,11.30,1016.97,81.90,NaN,15.0,NaN,10.5,NaN,165.2,NaN,20.4,NaN,NaN,1.158,NaN,138.0,NaN,NaN,NaN,2,10.9,000226,   NaN,140.7,     NaN,      NaN,NaN,13.3,NaN, NaN,0.219,NaN,NaN, NaN, NaN
20060226,000258,1906670,37.113500,-124.129800,NaN,12.862,32.816,38.530,  NaN,NaN,2.423, NaN, NaN,14.300, NaN,   NaN,11.30,1017.10,81.60,NaN,15.0,NaN,9.6,NaN,155.8,NaN,18.7,NaN,NaN,1.164,NaN,137.0,NaN,NaN,NaN,2,10.7,000256,   NaN,137.4,     NaN,      NaN,NaN,13.2,NaN, NaN,0.219,NaN,NaN, NaN, NaN
20060226,000328,1906700,37.112300,-124.128700,NaN,12.862,32.816,38.530,  NaN,NaN,2.380, NaN, NaN,14.200, NaN,   NaN,11.30,1017.33,82.00,NaN,15.0,NaN,10.8,NaN,167.3,NaN,20.9,NaN,NaN,1.153,NaN,138.0,NaN,NaN,NaN,2,11.0,000326,   NaN,141.8,     NaN,      NaN,NaN,13.6,NaN, NaN,0.291,NaN,NaN, NaN, NaN
20060226,000358,1906730,37.111300,-124.127300,NaN,12.872,32.816,38.530,  NaN,NaN,2.361, NaN, NaN,14.200, NaN,   NaN,11.30,1017.11,82.10,NaN,12.0,NaN,9.3,NaN,162.7,NaN,18.1,NaN,NaN,1.148,NaN,138.0,NaN,NaN,NaN,2,10.8,000356,   NaN,138.9,     NaN,      NaN,NaN,13.5,NaN, NaN,0.225,NaN,NaN, NaN, NaN
20060226,000428,1906760,37.110200,-124.126200,NaN,12.872,32.816,38.530,  NaN,NaN,2.501, NaN, NaN,14.200, NaN,   NaN,11.40,1017.08,82.90,NaN,13.0,NaN,9.7,NaN,160.3,NaN,18.9,NaN,NaN,1.184,NaN,137.0,NaN,NaN,NaN,2,10.7,000426,   NaN,137.1,     NaN,      NaN,NaN,13.6,NaN, NaN,0.413,NaN,NaN, NaN, NaN
20060226,000458,1906790,37.109200,-124.124800,NaN,12.872,32.816,38.530,  NaN,NaN,2.396, NaN, NaN,14.300, NaN,   NaN,11.40,1017.05,82.90,NaN,16.0,NaN,10.3,NaN,163.3,NaN,19.9,NaN,NaN,1.157,NaN,136.0,NaN,NaN,NaN,2,10.7,000456,   NaN,139.0,     NaN,      NaN,NaN,13.6,NaN, NaN,0.297,NaN,NaN, NaN, NaN
20060226,000528,1906820,37.108000,-124.123700,NaN,12.872,32.816,38.530,  NaN,NaN,2.403, NaN, NaN,14.300, NaN,   NaN,11.40,1017.05,82.60,NaN,14.0,NaN,10.0,NaN,167.9,NaN,19.5,NaN,NaN,1.159,NaN,138.0,NaN,NaN,NaN,2,10.6,000526,   NaN,140.3,     NaN,      NaN,NaN,13.5,NaN, NaN,0.237,NaN,NaN, NaN, NaN
20060226,000558,1906850,37.107000,-124.122300,NaN,12.862,32.816,38.530,  NaN,NaN,2.427, NaN, NaN,14.200, NaN,   NaN,11.30,1017.05,81.50,NaN,15.0,NaN,10.1,NaN,159.9,NaN,19.6,NaN,NaN,1.165,NaN,136.0,NaN,NaN,NaN,2,10.6,000556,   NaN,138.6,     NaN,      NaN,NaN,13.4,NaN, NaN,0.220,NaN,NaN, NaN, NaN
20060226,000628,1906880,37.106000,-124.121000,NaN,12.862,32.816,38.530,  NaN,NaN,2.396, NaN, NaN,14.300, NaN,   NaN,11.30,1017.03,80.60,NaN,17.0,NaN,10.0,NaN,164.9,NaN,19.5,NaN,NaN,1.157,NaN,136.0,NaN,NaN,NaN,2,10.7,000626,   NaN,138.9,     NaN,      NaN,NaN,13.5,NaN, NaN,0.259,NaN,NaN, NaN, NaN
20060226,000658,1906910,37.104800,-124.119800,NaN,12.862,32.816,38.530,  NaN,NaN,2.350, NaN, NaN,14.200, NaN,   NaN,11.30,1017.00,80.60,NaN,14.0,NaN,10.8,NaN,163.8,NaN,20.9,NaN,NaN,1.145,NaN,138.0,NaN,NaN,NaN,2,10.6,000656,   NaN,139.5,     NaN,      NaN,NaN,13.4,NaN, NaN,0.225,NaN,NaN, NaN, NaN
20060226,000728,1906940,37.103800,-124.118500,NaN,12.852,32.816,38.520,  NaN,NaN,2.427, NaN, NaN,14.200, NaN,   NaN,11.40,1016.96,80.90,NaN,12.0,NaN,11.9,NaN,158.7,NaN,23.2,NaN,NaN,1.165,NaN,137.0,NaN,NaN,NaN,2,10.7,000726,   NaN,139.5,     NaN,      NaN,NaN,13.5,NaN, NaN,0.249,NaN,NaN, NaN, NaN
20060226,000758,1906970,37.102700,-124.117300,NaN,12.852,32.826,38.520,  NaN,NaN,2.392, NaN, NaN,14.200, NaN,   NaN,11.40,1016.97,80.60,NaN,16.0,NaN,11.5,NaN,163.7,NaN,22.4,NaN,NaN,1.156,NaN,137.0,NaN,NaN,NaN,2,10.6,000756,   NaN,139.0,     NaN,      NaN,NaN,13.3,NaN, NaN,0.213,NaN,NaN, NaN, NaN
20060226,000828,1907000,37.101700,-124.116000,NaN,12.852,32.826,38.520,  NaN,NaN,2.403, NaN, NaN,14.200, NaN,   NaN,11.30,1016.95,80.50,NaN,17.0,NaN,10.8,NaN,165.9,NaN,21.0,NaN,NaN,1.159,NaN,136.0,NaN,NaN,NaN,2,10.7,000826,   NaN,138.8,     NaN,      NaN,NaN,13.3,NaN, NaN,0.250,NaN,NaN, NaN, NaN
20060226,000858,1907030,37.100500,-124.114800,NaN,12.842,32.826,38.520,  NaN,NaN,2.446, NaN, NaN,14.200, NaN,   NaN,11.40,1016.96,80.50,NaN,18.0,NaN,11.5,NaN,165.1,NaN,22.4,NaN,NaN,1.170,NaN,137.0,NaN,NaN,NaN,2,10.7,000856,   NaN,138.8,     NaN,      NaN,NaN,13.5,NaN, NaN,0.216,NaN,NaN, NaN, NaN
20060226,000928,1907060,37.099500,-124.113500,NaN,12.842,32.816,38.520,  NaN,NaN,2.466, NaN, NaN,14.100, NaN,   NaN,11.40,1016.99,81.10,NaN,18.0,NaN,11.0,NaN,164.3,NaN,21.4,NaN,NaN,1.175,NaN,138.0,NaN,NaN,NaN,2,10.7,000926,   NaN,139.1,     NaN,      NaN,NaN,13.5,NaN, NaN,0.217,NaN,NaN, NaN, NaN
20060226,000958,1907090,37.098300,-124.112300,NaN,12.842,32.826,38.510,  NaN,NaN,2.481, NaN, NaN,14.200, NaN,   NaN,11.40,1016.94,82.10,NaN,14.0,NaN,11.5,NaN,165.3,NaN,22.4,NaN,NaN,1.179,NaN,138.0,NaN,NaN,NaN,2,10.7,000956,   NaN,139.0,     NaN,      NaN,NaN,13.5,NaN, NaN,0.374,NaN,NaN, NaN, NaN
20060226,001028,1907120,37.097300,-124.111000,NaN,12.842,32.816,38.510,  NaN,NaN,2.454, NaN, NaN,14.200, NaN,   NaN,11.60,1016.85,82.00,NaN,23.0,NaN,11.7,NaN,177.0,NaN,22.8,NaN,NaN,1.172,NaN,137.0,NaN,NaN,NaN,2,10.7,001026,   NaN,139.0,     NaN,      NaN,NaN,13.5,NaN, NaN,0.214,NaN,NaN, NaN, NaN
20060226,001058,1907150,37.096200,-124.109800,NaN,12.842,32.816,38.510,  NaN,NaN,2.392, NaN, NaN,14.200, NaN,   NaN,11.60,1016.84,82.80,NaN,16.0,NaN,11.6,NaN,164.0,NaN,22.5,NaN,NaN,1.156,NaN,137.0,NaN,NaN,NaN,2,10.8,001056,   NaN,139.0,     NaN,      NaN,NaN,13.3,NaN, NaN,0.212,NaN,NaN, NaN, NaN
20060226,001128,1907180,37.095200,-124.108500,NaN,12.842,32.816,38.510,  NaN,NaN,2.442, NaN, NaN,14.200, NaN,   NaN,11.40,1016.81,81.00,NaN,15.0,NaN,12.9,NaN,160.5,NaN,25.0,NaN,NaN,1.169,NaN,136.0,NaN,NaN,NaN,2,10.7,001126,   NaN,138.8,     NaN,      NaN,NaN,13.3,NaN, NaN,0.215,NaN,NaN, NaN, NaN
20060226,001158,1907210,37.094200,-124.107300,NaN,12.842,32.816,38.510,  NaN,NaN,2.392, NaN, NaN,14.200, NaN,   NaN,11.40,1016.81,79.70,NaN,11.0,NaN,11.7,NaN,156.4,NaN,22.7,NaN,NaN,1.156,NaN,137.0,NaN,NaN,NaN,2,10.6,001156,   NaN,138.7,     NaN,      NaN,NaN,13.4,NaN, NaN,0.213,NaN,NaN, NaN, NaN
20060226,001228,1907240,37.093000,-124.106000,NaN,12.842,32.816,38.510,  NaN,NaN,2.431, NaN, NaN,14.200, NaN,   NaN,11.30,1016.84,79.50,NaN,12.0,NaN,10.8,NaN,158.6,NaN,21.0,NaN,NaN,1.166,NaN,138.0,NaN,NaN,NaN,2,10.6,001226,   NaN,139.3,     NaN,      NaN,NaN,13.3,NaN, NaN,0.216,NaN,NaN, NaN, NaN
20060226,001258,1907270,37.092000,-124.104800,NaN,12.842,32.816,38.510,  NaN,NaN,2.446, NaN, NaN,14.200, NaN,   NaN,11.40,1016.74,79.60,NaN,17.0,NaN,11.9,NaN,160.3,NaN,23.2,NaN,NaN,1.170,NaN,137.0,NaN,NaN,NaN,2,10.6,001256,   NaN,138.3,     NaN,      NaN,NaN,13.4,NaN, NaN,0.216,NaN,NaN, NaN, NaN
20060226,001328,1907300,37.090800,-124.103500,NaN,12.842,32.826,38.510,  NaN,NaN,2.384, NaN, NaN,14.200, NaN,   NaN,11.40,1016.84,79.30,NaN,13.0,NaN,12.1,NaN,157.6,NaN,23.5,NaN,NaN,1.154,NaN,137.0,NaN,NaN,NaN,2,10.6,001326,   NaN,138.8,     NaN,      NaN,NaN,13.5,NaN, NaN,0.215,NaN,NaN, NaN, NaN
20060226,001358,1907330,37.089800,-124.102300,NaN,12.833,32.826,38.510,  NaN,NaN,2.403, NaN, NaN,14.200, NaN,   NaN,11.40,1017.01,79.20,NaN,14.0,NaN,11.0,NaN,162.6,NaN,21.3,NaN,NaN,1.159,NaN,139.0,NaN,NaN,NaN,2,10.6,001356,   NaN,139.8,     NaN,      NaN,NaN,13.5,NaN, NaN,0.217,NaN,NaN, NaN, NaN
20060226,001428,1907360,37.088700,-124.101000,NaN,12.833,32.826,38.510,  NaN,NaN,4.169, NaN, NaN,14.200, NaN,   NaN,11.40,1016.90,78.40,NaN,12.0,NaN,12.3,NaN,161.3,NaN,23.9,NaN,NaN,1.540,NaN,140.0,NaN,NaN,NaN,2,10.6,001426,   NaN,140.8,     NaN,      NaN,NaN,13.3,NaN, NaN,9.775,NaN,NaN, NaN, NaN
20060226,001458,1907390,37.087500,-124.099800,NaN,12.833,32.826,38.510,  NaN,NaN,2.597, NaN, NaN,14.200, NaN,   NaN,11.40,1016.95,78.80,NaN,9.0,NaN,11.3,NaN,157.8,NaN,22.0,NaN,NaN,1.208,NaN,140.0,NaN,NaN,NaN,2,10.6,001456,   NaN,141.5,     NaN,      NaN,NaN,13.4,NaN, NaN,1.379,NaN,NaN, NaN, NaN
20060226,001528,1907420,37.086500,-124.098700,NaN,12.833,32.826,38.520,  NaN,NaN,2.415, NaN, NaN,14.100, NaN,   NaN,11.40,1016.97,78.30,NaN,16.0,NaN,11.6,NaN,164.3,NaN,22.6,NaN,NaN,1.162,NaN,139.0,NaN,NaN,NaN,2,10.8,001526,   NaN,140.7,     NaN,      NaN,NaN,13.5,NaN, NaN,0.256,NaN,NaN, NaN, NaN
20060226,001558,1907450,37.085300,-124.097500,NaN,12.833,32.826,38.520,  NaN,NaN,2.346, NaN, NaN,14.200, NaN,   NaN,11.40,1016.86,78.40,NaN,13.0,NaN,10.8,NaN,160.4,NaN,21.0,NaN,NaN,1.144,NaN,139.0,NaN,NaN,NaN,2,10.8,001556,   NaN,141.1,     NaN,      NaN,NaN,13.3,NaN, NaN,0.245,NaN,NaN, NaN, NaN
20060226,001628,1907480,37.084200,-124.096300,NaN,12.833,32.835,38.520,  NaN,NaN,2.335, NaN, NaN,14.200, NaN,   NaN,11.40,1016.93,78.40,NaN,14.0,NaN,11.0,NaN,162.9,NaN,21.4,NaN,NaN,1.141,NaN,141.0,NaN,NaN,NaN,2,10.7,001626,   NaN,140.6,     NaN,      NaN,NaN,13.6,NaN, NaN,0.233,NaN,NaN, NaN, NaN
20060226,001658,1907510,37.083000,-124.095000,NaN,12.833,32.826,38.520,  NaN,NaN,2.384, NaN, NaN,14.200, NaN,   NaN,11.40,1016.78,79.20,NaN,10.0,NaN,11.6,NaN,159.2,NaN,22.6,NaN,NaN,1.154,NaN,140.0,NaN,NaN,NaN,2,10.7,001656,   NaN,141.6,     NaN,      NaN,NaN,13.5,NaN, NaN,0.223,NaN,NaN, NaN, NaN
20060226,001728,1907540,37.082000,-124.093800,NaN,12.833,32.826,38.520,  NaN,NaN,2.442, NaN, NaN,14.200, NaN,   NaN,11.40,1016.77,78.70,NaN,18.0,NaN,12.4,NaN,161.8,NaN,24.0,NaN,NaN,1.169,NaN,138.0,NaN,NaN,NaN,2,10.7,001726,   NaN,140.0,     NaN,      NaN,NaN,13.3,NaN, NaN,0.246,NaN,NaN, NaN, NaN
20060226,001758,1907570,37.080800,-124.092700,NaN,12.833,32.826,38.510,  NaN,NaN,2.419, NaN, NaN,14.200, NaN,   NaN,11.30,1016.84,78.40,NaN,15.0,NaN,10.9,NaN,162.7,NaN,21.2,NaN,NaN,1.163,NaN,140.0,NaN,NaN,NaN,2,10.6,001756,   NaN,143.3,     NaN,      NaN,NaN,13.4,NaN, NaN,0.621,NaN,NaN, NaN, NaN
20060226,001828,1907600,37.079700,-124.091500,NaN,12.833,32.826,38.510,  NaN,NaN,2.396, NaN, NaN,14.200, NaN,   NaN,11.40,1016.88,80.00,NaN,15.0,NaN,10.7,NaN,164.2,NaN,20.8,NaN,NaN,1.157,NaN,141.0,NaN,NaN,NaN,2,10.7,001826,   NaN,141.4,     NaN,      NaN,NaN,13.3,NaN, NaN,0.289,NaN,NaN, NaN, NaN
20060226,001858,1907630,37.078500,-124.090200,NaN,12.833,32.826,38.510,  NaN,NaN,2.431, NaN, NaN,14.100, NaN,   NaN,11.40,1017.02,80.50,NaN,14.0,NaN,8.8,NaN,154.2,NaN,17.2,NaN,NaN,1.166,NaN,138.0,NaN,NaN,NaN,2,10.8,001856,   NaN,140.9,     NaN,      NaN,NaN,13.6,NaN, NaN,0.244,NaN,NaN, NaN, NaN
20060226,001928,1907660,37.077500,-124.089000,NaN,12.833,32.826,38.510,  NaN,NaN,2.434, NaN, NaN,14.200, NaN,   NaN,11.40,1016.97,79.70,NaN,14.0,NaN,11.4,NaN,161.2,NaN,22.1,NaN,NaN,1.167,NaN,138.0,NaN,NaN,NaN,2,11.0,001926,   NaN,139.7,     NaN,      NaN,NaN,13.4,NaN, NaN,0.214,NaN,NaN, NaN, NaN
20060226,001958,1907690,37.076300,-124.087700,NaN,12.842,32.826,38.520,  NaN,NaN,2.470, NaN, NaN,14.200, NaN,   NaN,11.40,1016.76,79.70,NaN,20.0,NaN,11.1,NaN,164.3,NaN,21.6,NaN,NaN,1.176,NaN,136.0,NaN,NaN,NaN,2,10.7,001956,   NaN,139.0,     NaN,      NaN,NaN,13.5,NaN, NaN,0.216,NaN,NaN, NaN, NaN
20060226,002028,1907720,37.075300,-124.086500,NaN,12.833,32.835,38.510,  NaN,NaN,2.357, NaN, NaN,14.200, NaN,   NaN,11.40,1016.86,81.00,NaN,20.0,NaN,10.5,NaN,168.4,NaN,20.5,NaN,NaN,1.147,NaN,138.0,NaN,NaN,NaN,2,10.6,002026,   NaN,139.4,     NaN,      NaN,NaN,13.5,NaN, NaN,0.221,NaN,NaN, NaN, NaN
20060226,002058,1907750,37.074200,-124.085200,NaN,12.823,32.826,38.500,  NaN,NaN,2.400, NaN, NaN,14.200, NaN,   NaN,11.40,1016.79,80.30,NaN,20.0,NaN,11.3,NaN,169.9,NaN,22.0,NaN,NaN,1.158,NaN,137.0,NaN,NaN,NaN,2,10.6,002056,   NaN,139.0,     NaN,      NaN,NaN,13.5,NaN, NaN,0.221,NaN,NaN, NaN, NaN
20060226,002128,1907780,37.073200,-124.084000,NaN,12.813,32.826,38.490,  NaN,NaN,2.204, NaN, NaN,14.200, NaN,   NaN,11.40,1016.85,79.50,NaN,15.0,NaN,12.3,NaN,163.1,NaN,24.0,NaN,NaN,1.106,NaN,138.0,NaN,NaN,NaN,2,10.7,002126,   NaN,138.5,     NaN,      NaN,NaN,13.6,NaN, NaN,0.221,NaN,NaN, NaN, NaN
20060226,002158,1907810,37.072200,-124.082700,NaN,12.803,32.816,38.470,  NaN,NaN,2.103, NaN, NaN,14.200, NaN,   NaN,11.40,1016.89,79.70,NaN,16.0,NaN,11.3,NaN,160.0,NaN,21.9,NaN,NaN,1.078,NaN,136.0,NaN,NaN,NaN,2,10.7,002156,   NaN,139.4,     NaN,      NaN,NaN,13.6,NaN, NaN,0.230,NaN,NaN, NaN, NaN
20060226,002228,1907840,37.071000,-124.081500,NaN,12.803,32.806,38.460,  NaN,NaN,2.107, NaN, NaN,14.200, NaN,   NaN,11.40,1016.83,79.30,NaN,13.0,NaN,11.0,NaN,160.2,NaN,21.3,NaN,NaN,1.079,NaN,139.0,NaN,NaN,NaN,2,10.5,002226,   NaN,140.8,     NaN,      NaN,NaN,13.6,NaN, NaN,0.213,NaN,NaN, NaN, NaN
20060226,002258,1907870,37.070000,-124.080200,NaN,12.803,32.806,38.460,  NaN,NaN,2.103, NaN, NaN,14.200, NaN,   NaN,11.40,1016.76,80.70,NaN,27.0,NaN,12.2,NaN,174.4,NaN,23.6,NaN,NaN,1.078,NaN,137.0,NaN,NaN,NaN,2,10.6,002256,   NaN,138.2,     NaN,      NaN,NaN,13.5,NaN, NaN,0.236,NaN,NaN, NaN, NaN
20060226,002328,1907900,37.068800,-124.079000,NaN,12.803,32.796,38.450,  NaN,NaN,2.061, NaN, NaN,14.200, NaN,   NaN,11.60,1016.66,81.40,NaN,15.0,NaN,10.4,NaN,157.4,NaN,20.1,NaN,NaN,1.066,NaN,135.0,NaN,NaN,NaN,2,10.7,002326,   NaN,137.5,     NaN,      NaN,NaN,13.4,NaN, NaN,0.213,NaN,NaN, NaN, NaN
20060226,002358,1907930,37.067800,-124.077700,NaN,12.803,32.796,38.440,  NaN,NaN,2.026, NaN, NaN,14.100, NaN,   NaN,11.40,1016.68,80.70,NaN,10.0,NaN,11.6,NaN,156.3,NaN,22.5,NaN,NaN,1.056,NaN,137.0,NaN,NaN,NaN,2,10.4,002356,   NaN,140.6,     NaN,      NaN,NaN,13.5,NaN, NaN,0.263,NaN,NaN, NaN, NaN
20060226,002428,1907960,37.066700,-124.076500,NaN,12.803,32.786,38.440,  NaN,NaN,2.050, NaN, NaN,14.200, NaN,   NaN,11.40,1016.68,80.20,NaN,15.0,NaN,10.3,NaN,159.3,NaN,20.1,NaN,NaN,1.063,NaN,138.0,NaN,NaN,NaN,2,10.5,002426,   NaN,139.1,     NaN,      NaN,NaN,13.5,NaN, NaN,0.242,NaN,NaN, NaN, NaN
20060226,002458,1907990,37.065700,-124.075200,NaN,12.803,32.796,38.450,  NaN,NaN,1.991, NaN, NaN,14.100, NaN,   NaN,11.40,1016.65,80.60,NaN,17.0,NaN,11.0,NaN,166.9,NaN,21.3,NaN,NaN,1.046,NaN,136.0,NaN,NaN,NaN,2,10.3,002456,   NaN,137.0,     NaN,      NaN,NaN,13.5,NaN, NaN,0.221,NaN,NaN, NaN, NaN
20060226,002528,1908020,37.064700,-124.074000,NaN,12.803,32.796,38.450,  NaN,NaN,2.012, NaN, NaN,14.200, NaN,   NaN,11.40,1016.71,79.50,NaN,13.0,NaN,11.1,NaN,160.3,NaN,21.7,NaN,NaN,1.052,NaN,136.0,NaN,NaN,NaN,2,10.4,002526,   NaN,139.4,     NaN,      NaN,NaN,13.5,NaN, NaN,0.237,NaN,NaN, NaN, NaN
20060226,002558,1908050,37.063500,-124.072700,NaN,12.803,32.796,38.450,  NaN,NaN,1.991, NaN, NaN,14.200, NaN,   NaN,11.40,1016.61,79.60,NaN,15.0,NaN,9.2,NaN,166.2,NaN,17.9,NaN,NaN,1.046,NaN,137.0,NaN,NaN,NaN,2,10.6,002556,   NaN,139.0,     NaN,      NaN,NaN,13.4,NaN, NaN,0.265,NaN,NaN, NaN, NaN
20060226,002628,1908080,37.062500,-124.071500,NaN,12.803,32.796,38.450,  NaN,NaN,1.977, NaN, NaN,14.200, NaN,   NaN,11.40,1016.60,80.00,NaN,13.0,NaN,10.1,NaN,159.1,NaN,19.6,NaN,NaN,1.042,NaN,137.0,NaN,NaN,NaN,2,10.5,002626,   NaN,139.1,     NaN,      NaN,NaN,13.2,NaN, NaN,0.308,NaN,NaN, NaN, NaN
20060226,002658,1908110,37.061300,-124.070200,NaN,12.803,32.796,38.450,  NaN,NaN,2.026, NaN, NaN,14.200, NaN,   NaN,11.40,1016.75,80.30,NaN,19.0,NaN,9.9,NaN,171.6,NaN,19.2,NaN,NaN,1.056,NaN,137.0,NaN,NaN,NaN,2,10.7,002656,   NaN,139.0,     NaN,      NaN,NaN,13.5,NaN, NaN,0.211,NaN,NaN, NaN, NaN
20060226,002728,1908140,37.060300,-124.069000,NaN,12.803,32.796,38.450,  NaN,NaN,2.039, NaN, NaN,14.100, NaN,   NaN,11.40,1016.76,80.60,NaN,15.0,NaN,8.5,NaN,165.7,NaN,16.6,NaN,NaN,1.060,NaN,137.0,NaN,NaN,NaN,2,10.8,002726,   NaN,139.6,     NaN,      NaN,NaN,13.6,NaN, NaN,0.227,NaN,NaN, NaN, NaN
20060226,002758,1908170,37.059200,-124.067700,NaN,12.813,32.796,38.460,  NaN,NaN,2.001, NaN, NaN,14.200, NaN,   NaN,11.60,1016.70,81.20,NaN,14.0,NaN,11.2,NaN,159.1,NaN,21.7,NaN,NaN,1.049,NaN,137.0,NaN,NaN,NaN,2,10.6,002756,   NaN,139.6,     NaN,      NaN,NaN,13.5,NaN, NaN,0.289,NaN,NaN, NaN, NaN
20060226,002828,1908200,37.058200,-124.066300,NaN,12.813,32.796,38.460,  NaN,NaN,2.005, NaN, NaN,14.200, NaN,   NaN,11.40,1016.62,79.60,NaN,16.0,NaN,11.9,NaN,162.4,NaN,23.2,NaN,NaN,1.050,NaN,136.0,NaN,NaN,NaN,2,10.8,002826,   NaN,137.6,     NaN,      NaN,NaN,13.5,NaN, NaN,0.212,NaN,NaN, NaN, NaN
20060226,002858,1908230,37.057200,-124.065200,NaN,12.813,32.806,38.480,  NaN,NaN,2.008, NaN, NaN,14.200, NaN,   NaN,11.40,1016.61,79.70,NaN,15.0,NaN,9.5,NaN,162.8,NaN,18.5,NaN,NaN,1.051,NaN,137.0,NaN,NaN,NaN,2,10.8,002856,   NaN,140.9,     NaN,      NaN,NaN,13.3,NaN, NaN,0.228,NaN,NaN, NaN, NaN
20060226,002928,1908260,37.056000,-124.064000,NaN,12.813,32.806,38.480,  NaN,NaN,1.960, NaN, NaN,14.200, NaN,   NaN,11.60,1016.50,80.20,NaN,11.0,NaN,9.9,NaN,153.1,NaN,19.3,NaN,NaN,1.037,NaN,139.0,NaN,NaN,NaN,2,10.6,002926,   NaN,140.5,     NaN,      NaN,NaN,13.4,NaN, NaN,0.218,NaN,NaN, NaN, NaN
20060226,002958,1908290,37.055000,-124.062700,NaN,12.813,32.806,38.480,  NaN,NaN,1.981, NaN, NaN,14.200, NaN,   NaN,11.60,1016.48,80.60,NaN,12.0,NaN,9.6,NaN,150.5,NaN,18.6,NaN,NaN,1.043,NaN,136.0,NaN,NaN,NaN,2,10.6,002956,   NaN,136.1,     NaN,      NaN,NaN,13.3,NaN, NaN,0.215,NaN,NaN, NaN, NaN
20060226,003028,1908320,37.053800,-124.061300,NaN,12.813,32.806,38.470,  NaN,NaN,1.977, NaN, NaN,14.200, NaN,   NaN,11.40,1016.44,79.70,NaN,11.0,NaN,10.8,NaN,156.1,NaN,21.0,NaN,NaN,1.042,NaN,136.0,NaN,NaN,NaN,2,10.5,003026,   NaN,137.9,     NaN,      NaN,NaN,13.4,NaN, NaN,0.211,NaN,NaN, NaN, NaN
20060226,003058,1908350,37.052800,-124.060200,NaN,12.813,32.796,38.470,  NaN,NaN,2.012, NaN, NaN,14.200, NaN,   NaN,11.40,1016.54,80.00,NaN,5.0,NaN,8.1,NaN,148.1,NaN,15.8,NaN,NaN,1.052,NaN,139.0,NaN,NaN,NaN,2,10.5,003056,   NaN,139.7,     NaN,      NaN,NaN,13.5,NaN, NaN,0.244,NaN,NaN, NaN, NaN
20060226,003128,1908380,37.051700,-124.059000,NaN,12.813,32.796,38.460,  NaN,NaN,2.033, NaN, NaN,14.200, NaN,   NaN,11.40,1016.54,80.20,NaN,11.0,NaN,9.4,NaN,157.3,NaN,18.4,NaN,NaN,1.058,NaN,138.0,NaN,NaN,NaN,2,10.6,003126,   NaN,138.4,     NaN,      NaN,NaN,13.4,NaN, NaN,0.214,NaN,NaN, NaN, NaN
20060226,003158,1908410,37.050700,-124.057700,NaN,12.813,32.796,38.460,  NaN,NaN,1.991, NaN, NaN,14.200, NaN,   NaN,11.40,1016.52,80.60,NaN,9.0,NaN,8.6,NaN,142.6,NaN,16.6,NaN,NaN,1.046,NaN,137.0,NaN,NaN,NaN,2,10.8,003156,   NaN,137.8,     NaN,      NaN,NaN,13.5,NaN, NaN,0.218,NaN,NaN, NaN, NaN
20060226,003228,1908440,37.049500,-124.056500,NaN,12.813,32.786,38.450,  NaN,NaN,1.967, NaN, NaN,14.200, NaN,   NaN,11.60,1016.52,81.00,NaN,5.0,NaN,9.1,NaN,157.0,NaN,17.7,NaN,NaN,1.039,NaN,138.0,NaN,NaN,NaN,2,10.7,003226,   NaN,139.5,     NaN,      NaN,NaN,13.4,NaN, NaN,0.214,NaN,NaN, NaN, NaN
20060226,003258,1908470,37.048500,-124.055200,NaN,12.803,32.786,38.440,  NaN,NaN,1.977, NaN, NaN,14.200, NaN,   NaN,11.60,1016.38,81.10,NaN,10.0,NaN,10.1,NaN,147.8,NaN,19.7,NaN,NaN,1.042,NaN,138.0,NaN,NaN,NaN,2,10.6,003256,   NaN,140.0,     NaN,      NaN,NaN,13.4,NaN, NaN,0.212,NaN,NaN, NaN, NaN
20060226,003328,1908500,37.047300,-124.054000,NaN,12.803,32.786,38.440,  NaN,NaN,2.043, NaN, NaN,14.100, NaN,   NaN,11.60,1016.42,82.00,NaN,9.0,NaN,9.5,NaN,149.8,NaN,18.4,NaN,NaN,1.061,NaN,138.0,NaN,NaN,NaN,2,10.5,003326,   NaN,138.7,     NaN,      NaN,NaN,13.4,NaN, NaN,0.236,NaN,NaN, NaN, NaN
20060226,003358,1908530,37.046300,-124.052700,NaN,12.803,32.786,38.440,  NaN,NaN,1.970, NaN, NaN,14.100, NaN,   NaN,11.60,1016.58,82.00,NaN,9.0,NaN,9.4,NaN,153.9,NaN,18.3,NaN,NaN,1.040,NaN,138.0,NaN,NaN,NaN,2,10.6,003356,   NaN,138.2,     NaN,      NaN,NaN,13.5,NaN, NaN,0.213,NaN,NaN, NaN, NaN
20060226,003428,1908560,37.045300,-124.051500,NaN,12.803,32.786,38.440,  NaN,NaN,2.008, NaN, NaN,14.200, NaN,   NaN,11.60,1016.55,81.50,NaN,13.0,NaN,9.9,NaN,162.2,NaN,19.2,NaN,NaN,1.051,NaN,137.0,NaN,NaN,NaN,2,10.7,003426,   NaN,139.2,     NaN,      NaN,NaN,13.5,NaN, NaN,0.216,NaN,NaN, NaN, NaN
20060226,003458,1908590,37.044200,-124.050300,NaN,12.803,32.786,38.450,  NaN,NaN,2.015, NaN, NaN,14.100, NaN,   NaN,11.60,1016.44,80.90,NaN,14.0,NaN,11.2,NaN,159.6,NaN,21.9,NaN,NaN,1.053,NaN,137.0,NaN,NaN,NaN,2,10.5,003456,   NaN,139.1,     NaN,      NaN,NaN,13.5,NaN, NaN,0.211,NaN,NaN, NaN, NaN
20060226,003528,1908620,37.043200,-124.049000,NaN,12.803,32.786,38.450,  NaN,NaN,2.046, NaN, NaN,14.200, NaN,   NaN,11.60,1016.31,80.60,NaN,6.0,NaN,12.9,NaN,150.1,NaN,25.1,NaN,NaN,1.062,NaN,138.0,NaN,NaN,NaN,2,10.4,003526,   NaN,138.6,     NaN,      NaN,NaN,13.5,NaN, NaN,0.212,NaN,NaN, NaN, NaN
20060226,003558,1908650,37.042000,-124.047800,NaN,12.803,32.786,38.440,  NaN,NaN,2.005, NaN, NaN,14.200, NaN,   NaN,11.60,1016.55,80.90,NaN,12.0,NaN,11.9,NaN,158.1,NaN,23.2,NaN,NaN,1.050,NaN,136.0,NaN,NaN,NaN,2,10.6,003556,   NaN,137.9,     NaN,      NaN,NaN,13.4,NaN, NaN,0.211,NaN,NaN, NaN, NaN
20060226,003628,1908680,37.041000,-124.046500,NaN,12.803,32.786,38.440,  NaN,NaN,2.019, NaN, NaN,14.100, NaN,   NaN,11.60,1016.44,79.70,NaN,10.0,NaN,12.0,NaN,154.4,NaN,23.4,NaN,NaN,1.054,NaN,136.0,NaN,NaN,NaN,2,10.6,003626,   NaN,138.5,     NaN,      NaN,NaN,13.5,NaN, NaN,0.211,NaN,NaN, NaN, NaN
20060226,003658,1908710,37.040000,-124.045300,NaN,12.783,32.737,38.370,  NaN,NaN,1.903, NaN, NaN,14.100, NaN,   NaN,11.40,1016.49,78.90,NaN,9.0,NaN,12.1,NaN,152.3,NaN,23.5,NaN,NaN,1.020,NaN,138.0,NaN,NaN,NaN,2,10.3,003656,   NaN,140.5,     NaN,      NaN,NaN,13.5,NaN, NaN,0.228,NaN,NaN, NaN, NaN
20060226,003728,1908740,37.038800,-124.044200,NaN,12.763,32.669,38.290,  NaN,NaN,1.740, NaN, NaN,14.100, NaN,   NaN,11.60,1016.52,79.50,NaN,15.0,NaN,11.0,NaN,159.2,NaN,21.4,NaN,NaN,0.970,NaN,139.0,NaN,NaN,NaN,2,10.4,003726,   NaN,139.6,     NaN,      NaN,NaN,13.5,NaN, NaN,0.223,NaN,NaN, NaN, NaN
20060226,003758,1908770,37.037800,-124.042800,NaN,12.753,32.629,38.230,  NaN,NaN,1.655, NaN, NaN,14.100, NaN,   NaN,11.60,1016.45,79.50,NaN,18.0,NaN,12.7,NaN,159.8,NaN,24.7,NaN,NaN,0.943,NaN,135.0,NaN,NaN,NaN,2,10.4,003756,   NaN,136.8,     NaN,      NaN,NaN,13.3,NaN, NaN,0.230,NaN,NaN, NaN, NaN
20060226,003828,1908800,37.036800,-124.041700,NaN,12.744,32.610,38.190,  NaN,NaN,1.674, NaN, NaN,14.100, NaN,   NaN,11.60,1016.51,79.10,NaN,11.0,NaN,11.7,NaN,156.9,NaN,22.8,NaN,NaN,0.949,NaN,138.0,NaN,NaN,NaN,2,10.3,003826,   NaN,140.9,     NaN,      NaN,NaN,13.4,NaN, NaN,0.208,NaN,NaN, NaN, NaN
20060226,003858,1908830,37.035700,-124.040500,NaN,12.724,32.600,38.160,  NaN,NaN,1.655, NaN, NaN,14.100, NaN,   NaN,11.40,1016.55,78.00,NaN,14.0,NaN,11.1,NaN,161.1,NaN,21.5,NaN,NaN,0.943,NaN,139.0,NaN,NaN,NaN,2,10.4,003856,   NaN,139.0,     NaN,      NaN,NaN,13.3,NaN, NaN,0.224,NaN,NaN, NaN, NaN
20060226,003928,1908860,37.034700,-124.039300,NaN,12.694,32.561,38.110,  NaN,NaN,1.544, NaN, NaN,14.100, NaN,   NaN,11.60,1016.57,78.20,NaN,14.0,NaN,11.8,NaN,156.2,NaN,23.0,NaN,NaN,0.906,NaN,137.0,NaN,NaN,NaN,2,10.4,003926,   NaN,137.4,     NaN,      NaN,NaN,13.4,NaN, NaN,0.206,NaN,NaN, NaN, NaN
20060226,003958,1908890,37.033700,-124.038000,NaN,12.684,32.541,38.070,  NaN,NaN,1.565, NaN, NaN,14.000, NaN,   NaN,11.60,1016.47,78.20,NaN,15.0,NaN,12.1,NaN,158.9,NaN,23.4,NaN,NaN,0.913,NaN,137.0,NaN,NaN,NaN,2,10.3,003956,   NaN,138.9,     NaN,      NaN,NaN,13.5,NaN, NaN,0.300,NaN,NaN, NaN, NaN